Home   Weather   Swansea   Past weeks

Flag for United Kingdom Past Weather in Swansea, Wales, United Kingdom — Yesterday and Last 2 Weeks

Now
52 °F

Cool.


Feels Like: 47 °F
Forecast: 53 / 55 °F
Wind: 15 mph from West

Location: Mumbles

Current Time: Dec 8, 2016 at 12:15:04 pm

Latest Report: Dec 8, 2016 at 10:00 am


Visibility: N/A

Pressure: 30.24 "Hg

Humidity: 100%

Dew Point: 52 °F

Location of SwanseaLocation

Past Weather in Swansea — Graph

°F

Swansea Temperature Yesterday

Maximum temperature yesterday: 55 °F (at 12:00 pm)
Minimum temperature yesterday: 49 °F (at 3:00 am)
Average temperature yesterday: 52 °F

High & Low Weather Summary for the Past Weeks

 TemperatureHumidityPressure
High55 °F (Dec 7, 12:00 pm)100% (Dec 8, 10:00 am)30.62 "Hg (Dec 8, 10:00 am)
Low34 °F (Nov 30, 8:00 am)33% (Nov 30, 7:00 am)30.08 "Hg (Nov 23, 10:00 am)
Average45 °F76%30.30 "Hg
* Reported Nov 23 10:00 am — Dec 8 10:00 am, Swansea, Weather by CustomWeather, © 2016

Note: Actual official high and low records may vary slightly from our data, if they occured in-between our weather recording intervals... More about our weather records

Advertising

Swansea Weather History for the Previous 24 Hours

Scroll right to see more
 ConditionsComfort  
Time TempWeatherWind HumidityBarometerVisibility
10:00 am
Thu, Dec 8
52 °FCool.15 mph100%30.24 "HgN/A
8:00 am53 °FCool.33 mph99%30.19 "HgN/A
7:00 am53 °FCool.28 mph98%30.17 "HgN/A
6:00 am53 °FCool.20 mph96%30.16 "HgN/A
5:00 am53 °FCool.16 mph96%30.19 "HgN/A
4:00 am53 °FCool.18 mph96%30.20 "HgN/A
3:00 am54 °FCool.21 mph94%30.22 "HgN/A
2:00 am53 °FCool.20 mph97%30.22 "HgN/A
12:00 am51 °FCool.9 mph99%30.24 "HgN/A
11:00 pm
Wed, Dec 7
52 °FCool.5 mph99%30.25 "HgN/A
10:00 pm51 °FCool.5 mph97%30.24 "HgN/A
9:00 pm52 °FCool.12 mph96%30.25 "HgN/A
8:00 pm53 °FCool.3 mph95%30.25 "HgN/A
7:00 pm52 °FCool.9 mph92%30.24 "HgN/A
6:00 pm52 °FCool.8 mph91%30.22 "HgN/A
5:00 pm53 °FCool.20 mph89%30.22 "HgN/A
4:00 pm53 °FCool.14 mph88%30.22 "HgN/A
3:00 pm54 °FCool.17 mph86%30.22 "HgN/A
2:00 pm54 °FCool.17 mph85%30.21 "HgN/A
1:00 pm55 °FCool.13 mph86%30.22 "HgN/A
12:00 pm55 °FCool.20 mph84%30.24 "HgN/A
Weather by CustomWeather, © 2016

See weather overviewHow to use our weather pages